Time,TemperatureF,DewpointF,PressureIn,WindDirection,WindDirectionDegrees,WindSpeedMPH,WindSpeedGustMPH,Humidity,HourlyPrecipIn,Conditions,Clouds,dailyrainin,SoftwareType,DateUTC
2013-06-17 00:00:00,65.7,63.3,29.93,East,87,2.0,2.0,92,0.11,,,1.54,Wunderground v.1.15,2013-06-17 05:00:00,
2013-06-17 00:10:00,65.6,63.5,29.92,ESE,116,1.0,3.0,93,0.12,,,0.02,Wunderground v.1.15,2013-06-17 05:10:00,
2013-06-17 00:20:00,66.2,63.8,29.85,SE,145,4.0,8.0,92,0.12,,,0.04,Wunderground v.1.15,2013-06-17 05:20:00,
2013-06-17 00:30:00,66.7,64.0,29.82,ESE,102,8.0,8.0,91,0.09,,,0.05,Wunderground v.1.15,2013-06-17 05:30:00,
2013-06-17 00:40:00,66.8,63.8,29.84,SE,127,6.0,6.0,90,0.04,,,0.05,Wunderground v.1.15,2013-06-17 05:40:00,
2013-06-17 00:50:00,67.0,63.6,29.84,East,79,5.0,5.0,89,0.00,,,0.05,Wunderground v.1.15,2013-06-17 05:50:00,
2013-06-17 01:00:00,67.6,63.3,29.84,SE,145,5.0,7.0,86,0.00,,,0.05,Wunderground v.1.15,2013-06-17 06:00:00,
2013-06-17 01:10:00,68.0,63.0,29.85,SE,135,5.0,5.0,84,0.00,,,0.05,Wunderground v.1.15,2013-06-17 06:10:00,
2013-06-17 01:20:00,67.8,62.8,29.83,SE,141,4.0,4.0,84,0.00,,,0.05,Wunderground v.1.15,2013-06-17 06:20:00,
2013-06-17 01:30:00,67.8,62.1,29.82,South,176,4.0,5.0,82,0.00,,,0.05,Wunderground v.1.15,2013-06-17 06:30:00,
2013-06-17 01:40:00,67.6,61.9,29.81,South,173,6.0,6.0,82,0.00,,,0.05,Wunderground v.1.15,2013-06-17 06:40:00,
2013-06-17 01:50:00,67.0,61.7,29.81,SSE,166,4.0,4.0,83,0.00,,,0.05,Wunderground v.1.15,2013-06-17 06:50:00,
2013-06-17 02:00:00,66.9,61.2,29.81,SSW,201,4.0,4.0,82,0.00,,,0.05,Wunderground v.1.15,2013-06-17 07:00:00,
2013-06-17 02:10:00,66.9,61.2,29.80,SSE,160,4.0,4.0,82,0.00,,,0.05,Wunderground v.1.15,2013-06-17 07:10:00,
2013-06-17 02:20:00,66.4,61.4,29.80,SW,236,1.0,1.0,84,0.00,,,0.05,Wunderground v.1.15,2013-06-17 07:20:00,
2013-06-17 02:30:00,65.9,61.6,29.78,East,96,0.0,0.0,86,0.00,,,0.05,Wunderground v.1.15,2013-06-17 07:30:00,
2013-06-17 02:40:00,65.4,61.4,29.78,NW,321,1.0,1.0,87,0.00,,,0.05,Wunderground v.1.15,2013-06-17 07:40:00,
2013-06-17 02:50:00,65.1,61.8,29.80,WNW,302,2.0,3.0,89,0.00,,,0.05,Wunderground v.1.15,2013-06-17 07:50:00,
2013-06-17 03:00:00,65.4,61.4,29.78,North,11,2.0,2.0,87,0.00,,,0.05,Wunderground v.1.15,2013-06-17 08:00:00,
2013-06-17 03:10:00,64.8,61.2,29.78,NW,323,2.0,4.0,88,0.00,,,0.05,Wunderground v.1.15,2013-06-17 08:10:00,
2013-06-17 03:20:00,64.3,61.0,29.79,NNW,327,3.0,3.0,89,0.00,,,0.05,Wunderground v.1.15,2013-06-17 08:20:00,
2013-06-17 03:30:00,64.2,60.9,29.80,NNW,347,2.0,2.0,89,0.00,,,0.05,Wunderground v.1.15,2013-06-17 08:30:00,
2013-06-17 03:40:00,64.3,61.0,29.80,North,9,2.0,2.0,89,0.00,,,0.05,Wunderground v.1.15,2013-06-17 08:40:00,
2013-06-17 03:50:00,64.3,61.3,29.81,North,11,2.0,2.0,90,0.00,,,0.05,Wunderground v.1.15,2013-06-17 08:50:00,
2013-06-17 04:00:00,64.2,61.2,29.82,WNW,297,1.0,1.0,90,0.00,,,0.05,Wunderground v.1.15,2013-06-17 09:00:00,
2013-06-17 04:10:00,63.7,60.7,29.83,NW,311,0.0,0.0,90,0.00,,,0.05,Wunderground v.1.15,2013-06-17 09:10:00,
2013-06-17 04:20:00,63.6,60.9,29.84,WNW,287,1.0,2.0,91,0.00,,,0.05,Wunderground v.1.15,2013-06-17 09:20:00,
2013-06-17 04:30:00,63.2,60.5,29.85,WNW,290,1.0,1.0,91,0.00,,,0.05,Wunderground v.1.15,2013-06-17 09:30:00,
2013-06-17 04:40:00,63.0,60.6,29.86,WNW,291,0.0,0.0,92,0.00,,,0.05,Wunderground v.1.15,2013-06-17 09:40:00,
2013-06-17 04:50:00,62.8,60.4,29.88,WNW,282,1.0,1.0,92,0.00,,,0.05,Wunderground v.1.15,2013-06-17 09:50:00,
2013-06-17 05:00:00,62.7,60.6,29.88,NW,304,1.0,1.0,93,0.00,,,0.05,Wunderground v.1.15,2013-06-17 10:00:00,
2013-06-17 05:10:00,62.6,60.2,29.88,WNW,293,0.0,1.0,92,0.00,,,0.05,Wunderground v.1.15,2013-06-17 10:10:00,
2013-06-17 05:20:00,62.2,60.2,29.89,NW,304,1.0,2.0,93,0.00,,,0.05,Wunderground v.1.15,2013-06-17 10:20:00,
2013-06-17 05:30:00,62.0,60.0,29.89,North,349,1.0,1.0,93,0.00,,,0.05,Wunderground v.1.15,2013-06-17 10:30:00,
2013-06-17 05:40:00,61.9,59.9,29.90,North,349,0.0,0.0,93,0.00,,,0.05,Wunderground v.1.15,2013-06-17 10:40:00,
2013-06-17 05:50:00,61.7,59.7,29.90,WNW,295,0.0,2.0,93,0.00,,,0.05,Wunderground v.1.15,2013-06-17 10:50:00,
2013-06-17 06:00:00,61.6,59.9,29.90,NNW,338,0.0,0.0,94,0.00,,,0.05,Wunderground v.1.15,2013-06-17 11:00:00,
2013-06-17 06:10:00,61.8,60.1,29.90,NW,312,1.0,1.0,94,0.00,,,0.05,Wunderground v.1.15,2013-06-17 11:10:00,
2013-06-17 06:20:00,62.2,60.5,29.90,WNW,282,1.0,2.0,94,0.00,,,0.05,Wunderground v.1.15,2013-06-17 11:20:00,
2013-06-17 06:30:00,62.6,60.8,29.90,WNW,289,1.0,1.0,94,0.00,,,0.05,Wunderground v.1.15,2013-06-17 11:30:00,
2013-06-17 06:40:00,63.1,61.3,29.90,West,280,1.0,1.0,94,0.00,,,0.05,Wunderground v.1.15,2013-06-17 11:40:00,
2013-06-17 06:50:00,63.0,60.9,29.91,WNW,285,0.0,0.0,93,0.00,,,0.05,Wunderground v.1.15,2013-06-17 11:50:00,
2013-06-17 07:00:00,63.1,61.3,29.91,West,281,0.0,1.0,94,0.00,,,0.05,Wunderground v.1.15,2013-06-17 12:00:00,
2013-06-17 07:10:00,64.0,62.2,29.91,WNW,290,1.0,1.0,94,0.00,,,0.05,Wunderground v.1.15,2013-06-17 12:10:00,
2013-06-17 07:20:00,64.9,62.8,29.92,WNW,287,2.0,2.0,93,0.00,,,0.05,Wunderground v.1.15,2013-06-17 12:20:00,
2013-06-17 07:30:00,65.5,63.1,29.92,WNW,283,3.0,3.0,92,0.00,,,0.05,Wunderground v.1.15,2013-06-17 12:30:00,
2013-06-17 07:40:00,65.9,63.5,29.92,West,266,2.0,2.0,92,0.00,,,0.05,Wunderground v.1.15,2013-06-17 12:40:00,
2013-06-17 07:50:00,66.3,63.6,29.92,West,280,2.0,3.0,91,0.00,,,0.05,Wunderground v.1.15,2013-06-17 12:50:00,
2013-06-17 08:00:00,67.7,64.7,29.92,NW,314,3.0,3.0,90,0.00,,,0.05,Wunderground v.1.15,2013-06-17 13:00:00,
2013-06-17 08:10:00,68.2,64.8,29.93,WNW,300,3.0,3.0,89,0.00,,,0.05,Wunderground v.1.15,2013-06-17 13:10:00,
2013-06-17 08:20:00,68.4,65.0,29.93,WNW,284,3.0,3.0,89,0.00,,,0.05,Wunderground v.1.15,2013-06-17 13:20:00,
2013-06-17 08:30:00,69.4,65.0,29.94,NW,317,2.0,3.0,86,0.00,,,0.05,Wunderground v.1.15,2013-06-17 13:30:00,
2013-06-17 08:40:00,70.0,64.9,29.94,NNW,329,3.0,3.0,84,0.00,,,0.05,Wunderground v.1.15,2013-06-17 13:40:00,
2013-06-17 08:50:00,70.5,65.4,29.95,WNW,292,3.0,4.0,84,0.00,,,0.05,Wunderground v.1.15,2013-06-17 13:50:00,
2013-06-17 09:00:00,70.9,65.8,29.95,NW,313,3.0,3.0,84,0.00,,,0.05,Wunderground v.1.15,2013-06-17 14:00:00,
2013-06-17 09:10:00,71.3,65.9,29.96,North,359,4.0,4.0,83,0.00,,,0.05,Wunderground v.1.15,2013-06-17 14:10:00,
2013-06-17 09:20:00,71.8,66.0,29.95,WNW,288,4.0,4.0,82,0.00,,,0.05,Wunderground v.1.15,2013-06-17 14:20:00,
2013-06-17 09:30:00,72.2,66.0,29.95,NW,325,4.0,4.0,81,0.00,,,0.05,Wunderground v.1.15,2013-06-17 14:30:00,
2013-06-17 09:40:00,72.4,65.9,29.95,NW,314,5.0,5.0,80,0.00,,,0.05,Wunderground v.1.15,2013-06-17 14:40:00,
2013-06-17 09:50:00,73.0,65.7,29.95,NNW,332,5.0,5.0,78,0.00,,,0.05,Wunderground v.1.15,2013-06-17 14:50:00,
2013-06-17 10:00:00,73.4,65.7,29.95,NNW,332,4.0,4.0,77,0.00,,,0.05,Wunderground v.1.15,2013-06-17 15:00:00,
2013-06-17 10:10:00,74.3,65.9,29.95,North,4,4.0,4.0,75,0.00,,,0.05,Wunderground v.1.15,2013-06-17 15:10:00,
2013-06-17 10:20:00,74.8,66.7,29.95,NNW,333,3.0,3.0,76,0.00,,,0.05,Wunderground v.1.15,2013-06-17 15:20:00,
2013-06-17 10:30:00,75.7,65.6,29.95,North,4,3.0,7.0,71,0.00,,,0.05,Wunderground v.1.15,2013-06-17 15:30:00,
2013-06-17 10:40:00,76.3,67.0,29.95,North,1,2.0,2.0,73,0.00,,,0.05,Wunderground v.1.15,2013-06-17 15:40:00,
2013-06-17 10:50:00,76.9,66.8,29.95,NW,319,2.0,2.0,71,0.00,,,0.05,Wunderground v.1.15,2013-06-17 15:50:00,
2013-06-17 11:00:00,77.4,67.3,29.95,NE,41,3.0,3.0,71,0.00,,,0.05,Wunderground v.1.15,2013-06-17 16:00:00,
2013-06-17 11:10:00,78.0,67.8,29.95,NNW,330,3.0,3.0,71,0.00,,,0.05,Wunderground v.1.15,2013-06-17 16:10:00,
2013-06-17 11:20:00,78.3,66.4,29.95,NNW,335,3.0,3.0,67,0.00,,,0.05,Wunderground v.1.15,2013-06-17 16:20:00,
2013-06-17 11:30:00,78.8,67.3,29.95,NNE,30,3.0,6.0,68,0.00,,,0.05,Wunderground v.1.15,2013-06-17 16:30:00,
2013-06-17 11:40:00,79.3,67.0,29.95,North,9,3.0,6.0,66,0.00,,,0.05,Wunderground v.1.15,2013-06-17 16:40:00,
2013-06-17 11:50:00,79.7,66.4,29.95,NNW,330,3.0,3.0,64,0.00,,,0.05,Wunderground v.1.15,2013-06-17 16:50:00,
2013-06-17 12:00:00,80.5,66.7,29.94,NE,48,3.0,3.0,63,0.00,,,0.05,Wunderground v.1.15,2013-06-17 17:00:00,
2013-06-17 12:10:00,81.3,66.6,29.94,NE,40,2.0,2.0,61,0.00,,,0.05,Wunderground v.1.15,2013-06-17 17:10:00,
2013-06-17 12:20:00,81.5,65.8,29.94,North,352,3.0,3.0,59,0.00,,,0.05,Wunderground v.1.15,2013-06-17 17:20:00,
2013-06-17 12:30:00,82.0,65.8,29.94,NW,307,3.0,3.0,58,0.00,,,0.05,Wunderground v.1.15,2013-06-17 17:30:00,
2013-06-17 12:40:00,82.7,66.9,29.94,NNW,347,3.0,3.0,59,0.00,,,0.05,Wunderground v.1.15,2013-06-17 17:40:00,
2013-06-17 12:50:00,83.5,67.2,29.94,NNW,331,2.0,3.0,58,0.00,,,0.05,Wunderground v.1.15,2013-06-17 17:50:00,
2013-06-17 13:00:00,82.8,67.0,29.94,North,11,4.0,7.0,59,0.00,,,0.05,Wunderground v.1.15,2013-06-17 18:00:00,
2013-06-17 13:10:00,83.0,65.7,29.94,ESE,108,3.0,3.0,56,0.00,,,0.05,Wunderground v.1.15,2013-06-17 18:10:00,
2013-06-17 13:20:00,83.2,63.7,29.93,NNW,335,3.0,3.0,52,0.00,,,0.05,Wunderground v.1.15,2013-06-17 18:20:00,
2013-06-17 13:30:00,83.4,65.0,29.93,NE,49,3.0,3.0,54,0.00,,,0.05,Wunderground v.1.15,2013-06-17 18:30:00,
2013-06-17 13:40:00,83.7,65.8,29.93,NNE,26,2.0,2.0,55,0.00,,,0.05,Wunderground v.1.15,2013-06-17 18:40:00,
2013-06-17 13:50:00,83.7,66.8,29.92,NW,326,4.0,4.0,57,0.00,,,0.05,Wunderground v.1.15,2013-06-17 18:50:00,
2013-06-17 14:00:00,84.3,65.8,29.92,North,4,4.0,5.0,54,0.00,,,0.05,Wunderground v.1.15,2013-06-17 19:00:00,
2013-06-17 14:10:00,84.4,64.9,29.92,NW,323,3.0,3.0,52,0.00,,,0.05,Wunderground v.1.15,2013-06-17 19:10:00,
2013-06-17 14:20:00,85.7,63.8,29.92,NNE,19,3.0,3.0,48,0.00,,,0.05,Wunderground v.1.15,2013-06-17 19:20:00,
2013-06-17 14:30:00,85.1,65.5,29.91,ENE,59,4.0,4.0,52,0.00,,,0.05,Wunderground v.1.15,2013-06-17 19:30:00,
2013-06-17 14:40:00,85.7,64.9,29.91,NNE,30,3.0,3.0,50,0.00,,,0.05,Wunderground v.1.15,2013-06-17 19:40:00,
2013-06-17 14:50:00,85.1,64.4,29.91,NNE,27,4.0,5.0,50,0.00,,,0.05,Wunderground v.1.15,2013-06-17 19:50:00,
2013-06-17 15:00:00,86.0,62.8,29.91,NNE,19,3.0,3.0,46,0.00,,,0.05,Wunderground v.1.15,2013-06-17 20:00:00,
2013-06-17 15:10:00,85.6,64.2,29.90,East,81,3.0,3.0,49,0.00,,,0.05,Wunderground v.1.15,2013-06-17 20:10:00,
2013-06-17 15:20:00,86.7,64.7,29.90,NE,41,3.0,5.0,48,0.00,,,0.05,Wunderground v.1.15,2013-06-17 20:20:00,
2013-06-17 15:30:00,87.0,64.3,29.90,NW,315,3.0,3.0,47,0.00,,,0.05,Wunderground v.1.15,2013-06-17 20:30:00,
2013-06-17 15:40:00,86.8,62.3,29.90,East,93,4.0,5.0,44,0.00,,,0.05,Wunderground v.1.15,2013-06-17 20:40:00,
2013-06-17 15:50:00,86.3,61.8,29.90,ENE,71,4.0,4.0,44,0.00,,,0.05,Wunderground v.1.15,2013-06-17 20:50:00,
2013-06-17 16:00:00,87.5,60.9,29.89,North,356,2.0,2.0,41,0.00,,,0.05,Wunderground v.1.15,2013-06-17 21:00:00,
2013-06-17 16:10:00,87.6,63.0,29.89,East,92,3.0,3.0,44,0.00,,,0.05,Wunderground v.1.15,2013-06-17 21:10:00,
2013-06-17 16:20:00,87.7,61.8,29.89,NNW,347,2.0,2.0,42,0.00,,,0.05,Wunderground v.1.15,2013-06-17 21:20:00,
2013-06-17 16:30:00,87.5,60.9,29.88,NNE,28,3.0,3.0,41,0.00,,,0.05,Wunderground v.1.15,2013-06-17 21:30:00,
2013-06-17 16:40:00,87.7,62.4,29.89,East,82,3.0,4.0,43,0.00,,,0.05,Wunderground v.1.15,2013-06-17 21:40:00,
2013-06-17 16:50:00,87.4,61.5,29.88,East,96,2.0,3.0,42,0.00,,,0.05,Wunderground v.1.15,2013-06-17 21:50:00,
2013-06-17 17:00:00,87.4,62.2,29.88,ENE,58,2.0,4.0,43,0.00,,,0.05,Wunderground v.1.15,2013-06-17 22:00:00,
2013-06-17 17:10:00,88.0,61.3,29.88,ESE,104,2.0,2.0,41,0.00,,,0.05,Wunderground v.1.15,2013-06-17 22:10:00,
2013-06-17 17:20:00,87.9,61.9,29.88,East,92,2.0,3.0,42,0.00,,,0.05,Wunderground v.1.15,2013-06-17 22:20:00,
2013-06-17 17:30:00,87.4,61.5,29.87,South,169,2.0,2.0,42,0.00,,,0.05,Wunderground v.1.15,2013-06-17 22:30:00,
2013-06-17 17:40:00,87.7,61.8,29.87,ESE,112,3.0,3.0,42,0.00,,,0.05,Wunderground v.1.15,2013-06-17 22:40:00,
2013-06-17 17:50:00,86.2,62.4,29.87,SE,135,2.0,2.0,45,0.00,,,0.05,Wunderground v.1.15,2013-06-17 22:50:00,
2013-06-17 18:00:00,87.4,63.5,29.87,NE,37,2.0,2.0,45,0.00,,,0.05,Wunderground v.1.15,2013-06-17 23:00:00,
2013-06-17 18:10:00,88.5,62.5,29.87,ESE,114,1.0,1.0,42,0.00,,,0.05,Wunderground v.1.15,2013-06-17 23:10:00,
2013-06-17 18:20:00,86.1,61.6,29.86,ENE,78,2.0,2.0,44,0.00,,,0.05,Wunderground v.1.15,2013-06-17 23:20:00,
2013-06-17 18:30:00,86.6,63.4,29.86,ESE,113,1.0,2.0,46,0.00,,,0.05,Wunderground v.1.15,2013-06-17 23:30:00,
2013-06-17 18:40:00,87.4,62.8,29.86,SE,129,1.0,2.0,44,0.00,,,0.05,Wunderground v.1.15,2013-06-17 23:40:00,
2013-06-17 18:50:00,87.8,63.2,29.87,SE,137,2.0,2.0,44,0.00,,,0.05,Wunderground v.1.15,2013-06-17 23:50:00,
2013-06-17 19:00:00,87.5,62.9,29.86,SE,129,1.0,1.0,44,0.00,,,0.05,Wunderground v.1.15,2013-06-18 00:00:00,
2013-06-17 19:10:00,87.2,63.9,29.87,SSE,150,1.0,1.0,46,0.00,,,0.05,Wunderground v.1.15,2013-06-18 00:10:00,
2013-06-17 19:20:00,86.7,63.4,29.87,East,81,1.0,2.0,46,0.00,,,0.05,Wunderground v.1.15,2013-06-18 00:20:00,
2013-06-17 19:30:00,86.4,63.8,29.87,ENE,74,2.0,2.0,47,0.00,,,0.05,Wunderground v.1.15,2013-06-18 00:30:00,
2013-06-17 19:40:00,86.1,62.9,29.87,ESE,107,2.0,2.0,46,0.00,,,0.05,Wunderground v.1.15,2013-06-18 00:40:00,
2013-06-17 19:50:00,85.8,63.2,29.86,East,96,1.0,2.0,47,0.00,,,0.05,Wunderground v.1.15,2013-06-18 00:50:00,
2013-06-17 20:00:00,84.3,63.1,29.86,ESE,105,1.0,1.0,49,0.00,,,0.05,Wunderground v.1.15,2013-06-18 01:00:00,
2013-06-17 20:10:00,83.3,63.3,29.86,ESE,106,0.0,0.0,51,0.00,,,0.05,Wunderground v.1.15,2013-06-18 01:10:00,
2013-06-17 20:20:00,82.3,64.5,29.86,SE,124,0.0,0.0,55,0.00,,,0.05,Wunderground v.1.15,2013-06-18 01:20:00,
2013-06-17 20:30:00,81.5,64.3,29.86,SE,144,0.0,0.0,56,0.00,,,0.05,Wunderground v.1.15,2013-06-18 01:30:00,
2013-06-17 20:40:00,80.8,64.1,29.87,SE,146,0.0,0.0,57,0.00,,,0.05,Wunderground v.1.15,2013-06-18 01:40:00,
2013-06-17 20:50:00,79.9,64.3,29.87,SE,146,0.0,0.0,59,0.00,,,0.05,Wunderground v.1.15,2013-06-18 01:50:00,
2013-06-17 21:00:00,79.3,64.2,29.88,SSE,151,0.0,0.0,60,0.00,,,0.05,Wunderground v.1.15,2013-06-18 02:00:00,
2013-06-17 21:10:00,78.7,64.6,29.88,SSE,150,0.0,0.0,62,0.00,,,0.05,Wunderground v.1.15,2013-06-18 02:10:00,
2013-06-17 21:20:00,77.3,66.7,29.87,SSE,150,0.0,0.0,70,0.00,,,0.05,Wunderground v.1.15,2013-06-18 02:20:00,
2013-06-17 21:30:00,75.6,65.5,29.87,SSE,150,0.0,0.0,71,0.00,,,0.05,Wunderground v.1.15,2013-06-18 02:30:00,
2013-06-17 21:40:00,74.7,65.1,29.87,SSE,151,0.0,0.0,72,0.00,,,0.05,Wunderground v.1.15,2013-06-18 02:40:00,
2013-06-17 21:50:00,74.4,66.7,29.89,SSW,192,0.0,0.0,77,0.00,,,0.05,Wunderground v.1.15,2013-06-18 02:50:00,
2013-06-17 22:00:00,73.3,65.7,29.89,SSW,193,0.0,0.0,77,0.00,,,0.05,Wunderground v.1.15,2013-06-18 03:00:00,
2013-06-17 22:10:00,73.2,65.9,29.90,SSW,210,0.0,1.0,78,0.00,,,0.05,Wunderground v.1.15,2013-06-18 03:10:00,
2013-06-17 22:20:00,72.0,65.5,29.91,SW,219,0.0,0.0,80,0.00,,,0.05,Wunderground v.1.15,2013-06-18 03:20:00,
2013-06-17 22:30:00,71.3,65.5,29.90,SW,219,0.0,0.0,82,0.00,,,0.05,Wunderground v.1.15,2013-06-18 03:30:00,
2013-06-17 22:40:00,71.0,65.6,29.91,SW,219,0.0,0.0,83,0.00,,,0.05,Wunderground v.1.15,2013-06-18 03:40:00,
2013-06-17 22:50:00,70.9,65.8,29.91,SW,219,0.0,0.0,84,0.00,,,0.05,Wunderground v.1.15,2013-06-18 03:50:00,
2013-06-17 23:00:00,70.3,65.9,29.91,SW,219,0.0,0.0,86,0.00,,,0.05,Wunderground v.1.15,2013-06-18 04:00:00,
2013-06-17 23:10:00,70.0,65.6,29.91,SW,219,0.0,0.0,86,0.00,,,0.05,Wunderground v.1.15,2013-06-18 04:10:00,
2013-06-17 23:20:00,69.7,65.7,29.90,SW,219,0.0,0.0,87,0.00,,,0.05,Wunderground v.1.15,2013-06-18 04:20:00,
2013-06-17 23:30:00,69.6,65.6,29.91,SW,219,0.0,0.0,87,0.00,,,0.05,Wunderground v.1.15,2013-06-18 04:30:00,
2013-06-17 23:40:00,69.2,65.5,29.91,SW,219,0.0,0.0,88,0.00,,,0.05,Wunderground v.1.15,2013-06-18 04:40:00,
2013-06-17 23:50:00,69.0,65.6,29.91,SW,219,0.0,0.0,89,0.00,,,0.05,Wunderground v.1.15,2013-06-18 04:50:00,